When you browse on this site, cookies collect data to enhance your experience and personalize the content and advertising you see.
Visit our Privacy Policy to learn more. By continuing to use the site, you agree to this use of cookies and data.
  • In Sweden
  • List of Countries
  • For 7 days
  • Water Temperature
  • Weather Map
  • Weather Widgets
  • user-avatar
    Login

    Hourly Weather Hajdúdorog

    Today, 18 October, Friday

    Time Temperature Precipitation Wind Pressure Humidity
    00:00 +16°C° 0 mm 1 mps 755 mmHg 68%
    01:00 +15°C° 0 mm 1 mps 755 mmHg 71%
    02:00 +15°C° 0 mm 1 mps 755 mmHg 73%
    03:00 +14°C° 0 mm 1 mps 755 mmHg 76%
    04:00 +14°C° 0 mm 1 mps 755 mmHg 78%
    05:00 +14°C° 0 mm 1 mps 755 mmHg 78%
    06:00 +14°C° 0 mm 1 mps 755 mmHg 79%
    07:00 +14°C° 0 mm 1 mps 755 mmHg 79%
    08:00 +16°C° 0 mm 1 mps 755 mmHg 72%
    09:00 +19°C° 0 mm 1 mps 755 mmHg 65%
    10:00 +21°C° 0 mm 1 mps 755 mmHg 58%
    11:00 +22°C° 0 mm 1 mps 754 mmHg 54%
    12:00 +23°C° 0 mm 1 mps 754 mmHg 51%
    13:00 +22°C° 0 mm 0 mps 754 mmHg 48%
    14:00 +21°C° 0 mm 0 mps 753 mmHg 50%
    15:00 +21°C° 0 mm 0 mps 753 mmHg 52%
    16:00 +20°C° 0 mm 0 mps 753 mmHg 54%
    17:00 +19°C° 0 mm 0 mps 753 mmHg 57%
    18:00 +20°C° 0 mm 1 mps 753 mmHg 59%
    19:00 +19°C° 0 mm 1 mps 753 mmHg 62%
    20:00 +18°C° 0 mm 1 mps 753 mmHg 63%
    21:00 +18°C° 0 mm 1 mps 753 mmHg 65%
    22:00 +18°C° 0 mm 1 mps 753 mmHg 66%
    23:00 +16°C° 0 mm 1 mps 754 mmHg 67%

    Tomorrow, 19 October, Saturday

    Time Temperature Precipitation Wind Pressure Humidity
    00:00 +16°C° 0 mm 1 mps 754 mmHg 69%
    01:00 +16°C° 0 mm 1 mps 754 mmHg 70%
    02:00 +15°C° 0 mm 1 mps 754 mmHg 71%
    03:00 +15°C° 0 mm 2 mps 754 mmHg 72%
    04:00 +15°C° 0 mm 2 mps 754 mmHg 73%
    05:00 +15°C° 0 mm 2 mps 754 mmHg 73%
    06:00 +15°C° 0 mm 1 mps 754 mmHg 73%
    07:00 +15°C° 0 mm 1 mps 754 mmHg 73%
    08:00 +17°C° 0 mm 2 mps 754 mmHg 65%
    09:00 +19°C° 0 mm 2 mps 754 mmHg 58%
    10:00 +21°C° 0 mm 3 mps 754 mmHg 50%
    11:00 +22°C° 0 mm 3 mps 754 mmHg 47%
    12:00 +24°C° 0 mm 3 mps 754 mmHg 44%
    13:00 +25°C° 0 mm 3 mps 754 mmHg 41%
    14:00 +24°C° 0 mm 2 mps 753 mmHg 44%
    15:00 +23°C° 0 mm 2 mps 753 mmHg 47%
    16:00 +21°C° 0 mm 2 mps 753 mmHg 50%
    17:00 +20°C° 0 mm 2 mps 753 mmHg 53%
    18:00 +19°C° 0 mm 2 mps 753 mmHg 56%
    19:00 +18°C° 0 mm 2 mps 754 mmHg 59%
    20:00 +18°C° 0 mm 2 mps 754 mmHg 60%
    21:00 +18°C° 0 mm 2 mps 754 mmHg 61%
    22:00 +17°C° 0 mm 2 mps 754 mmHg 63%
    23:00 +17°C° 0 mm 2 mps 754 mmHg 64%

    Day after tomorrow, 20 October, Sunday

    Time Temperature Precipitation Wind Pressure Humidity
    00:00 +16°C° 0 mm 2 mps 754 mmHg 66%
    01:00 +16°C° 0 mm 2 mps 754 mmHg 68%
    02:00 +16°C° 0 mm 2 mps 754 mmHg 69%
    03:00 +15°C° 0 mm 2 mps 754 mmHg 70%
    04:00 +15°C° 0 mm 2 mps 755 mmHg 72%
    05:00 +15°C° 0 mm 2 mps 755 mmHg 72%
    06:00 +15°C° 0 mm 2 mps 755 mmHg 72%
    07:00 +15°C° 0 mm 2 mps 755 mmHg 72%
    08:00 +17°C° 0 mm 2 mps 755 mmHg 65%
    09:00 +19°C° 0 mm 2 mps 755 mmHg 58%
    10:00 +21°C° 0 mm 3 mps 755 mmHg 50%
    11:00 +22°C° 0 mm 3 mps 755 mmHg 47%
    12:00 +24°C° 0 mm 3 mps 755 mmHg 44%
    13:00 +26°C° 0 mm 3 mps 755 mmHg 40%
    14:00 +25°C° 0 mm 3 mps 754 mmHg 43%
    15:00 +24°C° 0 mm 3 mps 754 mmHg 46%
    16:00 +23°C° 0 mm 2 mps 754 mmHg 48%
    17:00 +21°C° 0 mm 3 mps 754 mmHg 51%
    18:00 +20°C° 0 mm 3 mps 754 mmHg 54%
    19:00 +19°C° 0 mm 3 mps 755 mmHg 57%
    20:00 +18°C° 0 mm 3 mps 755 mmHg 59%
    21:00 +18°C° 0 mm 3 mps 755 mmHg 60%
    22:00 +17°C° 0 mm 3 mps 755 mmHg 62%
    23:00 +17°C° 0 mm 3 mps 755 mmHg 63%

    21 October, Monday

    Time Temperature Precipitation Wind Pressure Humidity
    00:00 +17°C° 0 mm 3 mps 755 mmHg 64%
    01:00 +16°C° 0 mm 3 mps 755 mmHg 65%
    02:00 +16°C° 0 mm 3 mps 755 mmHg 66%
    03:00 +16°C° 0 mm 3 mps 755 mmHg 66%
    04:00 +16°C° 0 mm 3 mps 755 mmHg 67%
    05:00 +16°C° 0 mm 3 mps 755 mmHg 67%
    06:00 +16°C° 0 mm 3 mps 755 mmHg 68%
    07:00 +16°C° 0 mm 3 mps 755 mmHg 69%
    08:00 +18°C° 0 mm 4 mps 755 mmHg 61%
    09:00 +19°C° 0 mm 4 mps 755 mmHg 54%
    10:00 +21°C° 0 mm 4 mps 756 mmHg 47%
    11:00 +22°C° 0 mm 4 mps 756 mmHg 46%
    12:00 +23°C° 0 mm 5 mps 756 mmHg 44%
    13:00 +25°C° 0 mm 5 mps 755 mmHg 42%
    14:00 +25°C° 0 mm 3 mps 755 mmHg 47%
    15:00 +24°C° 0 mm 2 mps 755 mmHg 51%
    16:00 +23°C° 0 mm 1 mps 755 mmHg 55%
    17:00 +22°C° 0 mm 1 mps 756 mmHg 58%
    18:00 +21°C° 0 mm 1 mps 756 mmHg 61%
    19:00 +20°C° 0 mm 1 mps 756 mmHg 65%
    20:00 +19°C° 0 mm 1 mps 757 mmHg 66%
    21:00 +18°C° 0 mm 2 mps 757 mmHg 68%
    22:00 +17°C° 0 mm 2 mps 757 mmHg 70%
    23:00 +17°C° 0 mm 2 mps 757 mmHg 72%

    22 October, Tuesday

    Time Temperature Precipitation Wind Pressure Humidity
    00:00 +16°C° 0 mm 2 mps 757 mmHg 74%
    01:00 +16°C° 0 mm 3 mps 758 mmHg 76%
    02:00 +14°C° 0 mm 3 mps 758 mmHg 78%
    03:00 +14°C° 0 mm 3 mps 758 mmHg 80%
    04:00 +14°C° 0 mm 3 mps 758 mmHg 82%
    05:00 +14°C° 0 mm 3 mps 758 mmHg 82%
    06:00 +14°C° 0 mm 3 mps 758 mmHg 82%
    07:00 +14°C° 0 mm 3 mps 759 mmHg 83%
    08:00 +15°C° 0 mm 4 mps 759 mmHg 74%
    09:00 +18°C° 0 mm 4 mps 759 mmHg 66%
    10:00 +20°C° 0 mm 5 mps 759 mmHg 57%
    11:00 +21°C° 0 mm 5 mps 759 mmHg 55%
    12:00 +21°C° 0 mm 5 mps 759 mmHg 53%
    13:00 +22°C° 0 mm 5 mps 759 mmHg 51%
    14:00 +21°C° 0 mm 5 mps 759 mmHg 53%
    15:00 +20°C° 0 mm 4 mps 759 mmHg 55%
    16:00 +19°C° 0 mm 4 mps 759 mmHg 57%
    17:00 +18°C° 0 mm 4 mps 759 mmHg 61%
    18:00 +17°C° 0 mm 4 mps 759 mmHg 65%
    19:00 +15°C° 0 mm 4 mps 759 mmHg 68%
    20:00 +14°C° 0 mm 4 mps 759 mmHg 70%
    21:00 +14°C° 0 mm 4 mps 759 mmHg 72%
    22:00 +13°C° 0 mm 4 mps 759 mmHg 74%
    23:00 +13°C° 0 mm 3 mps 759 mmHg 75%

    23 October, Wednesday

    Time Temperature Precipitation Wind Pressure Humidity
    00:00 +12°C° 0 mm 3 mps 759 mmHg 77%
    01:00 +12°C° 0 mm 3 mps 759 mmHg 79%
    02:00 +12°C° 0 mm 3 mps 759 mmHg 80%
    03:00 +11°C° 0 mm 3 mps 759 mmHg 81%
    04:00 +11°C° 0 mm 3 mps 759 mmHg 82%
    05:00 +11°C° 0 mm 3 mps 759 mmHg 82%
    06:00 +11°C° 0 mm 3 mps 759 mmHg 81%
    07:00 +11°C° 0 mm 3 mps 759 mmHg 81%
    08:00 +13°C° 0 mm 3 mps 759 mmHg 74%
    09:00 +16°C° 0 mm 3 mps 758 mmHg 67%
    10:00 +17°C° 0 mm 3 mps 758 mmHg 61%
    11:00 +19°C° 0 mm 3 mps 758 mmHg 58%
    12:00 +20°C° 0 mm 3 mps 758 mmHg 55%
    13:00 +23°C° 0 mm 2 mps 758 mmHg 52%
    14:00 +21°C° 0 mm 2 mps 757 mmHg 55%
    15:00 +20°C° 0 mm 2 mps 757 mmHg 58%
    16:00 +21°C° 0 mm 1 mps 757 mmHg 61%
    17:00 +20°C° 0 mm 1 mps 757 mmHg 65%
    18:00 +18°C° 0 mm 2 mps 757 mmHg 68%
    19:00 +17°C° 0 mm 2 mps 757 mmHg 71%
    20:00 +16°C° 0 mm 2 mps 757 mmHg 73%
    21:00 +16°C° 0 mm 2 mps 757 mmHg 74%
    22:00 +16°C° 0 mm 1 mps 757 mmHg 76%
    23:00 +15°C° 0 mm 1 mps 756 mmHg 77%
    Show more